Date,TemperatureHighF,TemperatureAvgF,TemperatureLowF,DewpointHighF,DewpointAvgF,DewpointLowF,HumidityHigh,HumidityAvg,HumidityLow,PressureMaxIn,PressureMinIn,WindSpeedMaxMPH,WindSpeedAvgMPH,GustSpeedMaxMPH,PrecipitationSumIn
2012-1-1,36.7,30.9,24.5,31.8,28.1,22.7,94,89,79,30.43,30.25,2,0,2,0.07
2012-1-2,33.1,27.4,22.1,28.5,24.8,20.1,94,90,79,30.25,29.94,4,0,4,0.00
2012-1-3,36.4,29.2,21.7,31.7,26.3,19.8,95,89,78,30.29,30.07,3,0,3,0.00
2012-1-4,36.4,32.6,27.4,33.2,30.5,25.3,100,92,87,30.17,29.88,3,0,3,0.00
2012-1-5,48.8,37.5,29.6,38.3,29.1,23.9,97,75,39,30.13,29.92,11,0,11,0.01
2012-1-6,40.2,33.7,27.1,29.0,26.2,23.4,86,74,53,30.12,30.01,10,0,10,0.00
2012-1-7,34.4,28.9,22.9,29.0,25.7,20.8,94,88,78,30.30,30.10,1,0,1,0.00
2012-1-8,40.1,32.4,26.9,32.1,28.5,24.4,93,86,72,30.26,30.19,3,0,3,0.00
2012-1-9,36.0,33.2,29.2,31.8,30.0,26.8,92,88,84,30.20,29.97,5,0,5,0.00
2012-1-10,44.1,36.0,24.3,28.6,21.5,11.5,94,57,41,30.47,29.97,10,0,10,0.00
2012-1-11,31.2,22.8,18.0,18.5,14.6,12.3,83,71,53,30.55,30.41,3,0,3,0.00
2012-1-12,28.1,21.6,15.1,18.2,14.9,10.9,92,76,63,30.46,30.24,0,0,1,0.00
2012-1-13,29.1,21.0,13.0,20.6,16.2,10.2,92,82,68,30.30,29.98,1,0,2,0.00
2012-1-14,35.0,26.4,17.8,23.7,19.5,14.9,90,80,55,29.98,29.62,4,0,9,0.00
2012-1-15,30.8,23.6,16.5,22.7,18.7,14.0,93,83,69,29.88,29.77,1,0,3,0.00
2012-1-16,29.4,21.9,14.4,22.2,16.9,12.1,93,86,70,29.96,29.78,1,0,2,0.00
2012-1-17,34.4,25.7,17.0,30.4,22.3,14.4,92,87,79,29.78,29.54,6,0,13,0.02
2012-1-18,27.2,20.2,13.2,22.5,13.9,10.4,90,87,82,29.80,29.71,4,0,11,0.00
2012-1-19,16.3,12.9,9.5,12.4,9.2,6.0,89,84,78,29.76,29.57,5,0,9,0.00
2012-1-20,21.0,16.5,10.3,16.6,12.9,7.3,92,85,74,29.82,29.21,2,-70,3,0.00
2012-1-21,38.3,25.1,17.1,27.4,21.0,14.5,92,84,63,29.69,29.13,3,-116,5,0.06
2012-1-22,31.5,25.8,17.5,29.8,23.9,15.5,94,92,87,29.76,29.55,0,-545,1,0.01
2012-1-23,31.1,20.5,11.8,27.1,18.0,9.5,100,90,82,30.01,29.64,0,-350,2,0.02
2012-1-24,29.8,26.3,21.5,28.1,24.0,19.8,94,91,83,30.00,29.66,1,-143,3,0.00
2012-1-25,46.3,38.8,28.7,35.4,31.5,26.9,95,76,48,30.03,29.67,17,-104,21,0.47
2012-1-26,44.4,36.2,24.6,32.3,24.3,17.6,94,65,38,30.34,29.74,18,2,18,0.02
2012-1-27,37.5,28.3,22.0,23.1,19.4,16.7,85,70,54,30.42,30.30,6,-84,11,0.00
2012-1-28,34.4,27.6,20.9,26.8,22.1,17.5,92,80,65,30.31,29.99,2,0,2,0.00
2012-1-29,40.6,31.6,24.0,32.1,27.6,21.1,94,85,71,30.00,29.57,2,0,2,0.02
2012-1-30,50.8,43.5,33.3,36.4,32.9,28.9,95,67,49,29.83,29.56,10,1,10,0.00
2012-1-31,46.4,35.3,27.0,33.7,29.2,24.3,92,79,59,29.88,29.79,2,-673,2,0.00
2012-2-1,49.2,39.2,32.9,37.2,28.5,23.2,94,69,37,30.23,29.75,16,-385,23,0.06
2012-2-2,41.8,34.0,25.2,27.6,24.6,21.9,88,69,51,30.34,30.23,11,-662,11,0.00
2012-2-3,39.8,28.8,21.2,28.6,23.6,19.0,94,82,62,30.34,30.21,1,-349,3,0.00
2012-2-4,41.6,31.6,24.7,29.8,25.7,21.6,92,79,61,30.30,30.19,6,0,6,0.00
2012-2-5,39.8,28.7,20.3,28.8,23.5,17.9,98,82,63,30.28,30.16,5,0,5,0.00
2012-2-6,39.2,26.9,18.4,28.7,22.3,16.5,94,83,63,30.21,30.08,3,0,3,0.00
2012-2-7,41.4,28.8,21.3,28.2,23.7,18.9,92,82,58,30.08,29.96,1,0,4,0.00
2012-2-8,39.7,36.3,31.1,34.4,32.6,28.8,93,86,80,30.22,30.07,2,0,3,0.02
2012-2-9,41.9,36.3,34.0,33.8,32.0,30.3,93,85,71,30.27,30.11,1,-67,2,0.02
2012-2-10,37.4,35.2,33.6,35.5,33.5,32.0,95,94,92,30.11,29.94,1,-77,1,0.18
2012-2-11,47.7,37.5,30.2,41.2,34.9,28.6,97,91,72,29.97,29.89,0,-698,0,0.06
2012-2-12,41.1,34.0,25.8,36.8,31.3,24.6,96,90,80,29.91,29.71,1,-127,3,0.01
2012-2-13,49.9,38.3,29.4,39.2,33.4,26.8,95,83,61,29.81,29.72,3,0,4,0.00
2012-2-14,38.7,31.5,26.6,33.8,28.1,24.6,94,87,76,29.95,29.74,3,0,5,0.00
2012-2-15,47.1,32.8,23.3,32.2,27.0,21.6,95,81,51,30.17,29.95,2,0,3,0.01
2012-2-16,42.3,33.2,26.8,32.9,28.5,24.0,92,83,67,30.18,30.04,3,0,3,0.00
2012-2-17,39.2,33.3,27.0,34.2,30.7,25.0,95,90,81,30.15,29.72,8,0,8,0.19
2012-2-18,43.9,35.5,28.4,36.4,31.6,27.1,96,86,66,29.79,29.70,11,1,11,0.03
2012-2-19,44.9,37.3,26.7,33.7,26.8,23.0,95,68,47,29.83,29.74,9,0,10,0.00
2012-2-20,45.2,37.5,30.7,31.4,27.7,23.9,83,68,48,29.83,29.72,5,0,5,0.00
2012-2-21,53.7,37.9,28.5,42.0,32.4,26.2,94,81,58,29.80,29.68,13,-369,17,0.02
2012-2-22,49.9,42.9,37.0,36.1,31.5,25.6,79,65,43,30.01,29.72,13,2,16,0.02
2012-2-23,50.5,40.8,32.3,31.1,27.2,23.3,82,60,36,30.12,30.00,7,1,7,0.00
2012-2-24,47.5,39.3,34.4,33.8,30.5,25.8,89,71,52,30.06,29.37,11,1,11,0.01
2012-2-25,47.2,39.8,29.6,32.9,26.0,21.3,95,60,36,29.88,29.36,16,1,16,0.00
2012-2-26,43.1,33.3,25.0,28.6,23.8,19.8,86,69,40,30.06,29.88,12,1,12,0.02
2012-2-27,39.5,28.5,18.9,26.6,21.0,15.4,89,74,45,30.09,29.87,9,0,9,0.02
2012-2-28,38.9,29.7,21.5,29.1,23.5,18.3,93,79,53,29.87,29.45,6,0,6,0.00
2012-2-29,38.9,31.2,23.8,31.3,27.2,21.4,99,86,68,29.56,29.41,3,0,4,0.33
2012-3-1,47.3,35.0,24.2,29.4,24.2,22.0,94,68,39,30.07,29.56,15,1,16,0.00
2012-3-2,51.2,39.2,27.1,31.9,27.1,21.3,82,63,44,30.15,30.03,6,0,6,0.00
2012-3-3,54.6,41.7,32.6,42.5,34.9,28.6,90,78,60,30.07,30.00,2,0,3,0.00
2012-3-4,63.2,47.0,32.1,40.5,34.8,29.8,94,66,38,30.08,29.68,8,1,8,0.00
2012-3-5,56.4,44.3,35.8,36.3,27.3,16.3,77,53,25,29.68,29.36,18,1,20,0.00
2012-3-6,46.4,37.4,27.2,25.9,19.3,11.9,79,51,27,30.07,29.61,13,1,13,0.00
2012-3-7,52.7,38.8,27.7,22.6,18.0,10.9,70,44,28,30.26,30.06,6,0,6,0.00
2012-3-8,52.4,37.0,25.3,29.3,25.3,20.3,92,65,38,30.31,30.09,4,0,4,0.00
2012-3-9,53.0,40.9,30.5,36.9,30.9,25.9,92,69,48,30.09,29.72,6,0,7,0.00
2012-3-10,57.8,45.9,33.3,38.7,35.7,29.8,91,69,45,29.72,29.43,11,0,12,0.00
2012-3-11,55.9,43.3,31.5,37.9,28.8,16.8,87,61,29,29.58,29.30,13,1,13,0.00
2012-3-12,38.4,34.4,27.4,35.2,29.5,20.1,92,82,66,29.59,29.06,6,0,6,0.04
2012-3-13,48.5,40.9,31.2,36.2,25.9,17.8,88,57,36,29.70,29.02,14,1,14,0.00
2012-3-14,38.7,33.6,28.5,32.8,28.4,23.5,93,82,61,29.74,29.66,7,0,7,0.10
2012-3-15,50.4,40.2,32.7,44.6,36.5,30.7,94,87,72,29.67,29.40,13,1,15,0.04
2012-3-16,56.9,43.5,33.5,40.2,31.0,24.0,95,66,31,29.47,29.25,10,1,10,0.02
2012-3-17,50.4,42.8,35.6,39.7,30.1,21.4,95,63,40,29.43,29.16,8,1,8,0.25
2012-3-18,53.9,39.6,28.9,33.2,26.4,22.1,81,61,37,29.53,29.36,13,1,13,0.02
2012-3-19,53.1,41.6,32.5,25.0,18.9,13.4,57,41,23,29.67,29.53,12,1,12,0.00
2012-3-20,50.0,39.8,34.0,37.4,31.3,23.6,92,73,41,29.74,29.36,15,1,22,0.02
2012-3-21,46.6,38.7,29.4,30.0,23.9,15.5,91,60,30,29.82,29.67,11,1,11,0.00
2012-3-22,52.2,40.1,31.1,35.0,29.7,23.3,100,70,34,29.83,29.61,12,0,12,0.04
2012-3-23,53.7,39.8,27.8,34.5,28.0,25.1,91,65,35,29.96,29.80,7,0,7,0.00
2012-3-24,60.3,42.3,28.8,33.8,27.7,24.3,86,60,27,29.97,29.77,11,0,11,0.00
2012-3-25,66.6,48.1,35.6,37.6,32.1,26.8,72,55,32,29.78,29.44,13,2,13,0.00
2012-3-26,57.4,48.2,38.8,37.9,33.4,29.3,83,58,39,29.59,29.43,13,1,13,0.00
2012-3-27,43.0,40.1,35.9,39.5,34.5,28.1,94,81,64,29.69,29.48,5,0,5,0.46
2012-3-28,58.7,47.5,40.5,44.7,38.4,31.2,95,73,39,29.60,29.42,7,0,14,0.04
2012-3-29,49.7,45.8,42.6,45.3,40.5,35.1,92,82,70,29.58,29.24,9,1,9,0.05
2012-3-30,57.4,46.4,39.5,42.8,35.7,24.0,94,70,34,29.51,29.26,15,1,15,0.13
2012-3-31,44.9,40.4,34.9,39.6,33.8,26.8,93,78,50,29.50,29.30,6,1,7,0.24
2012-4-1,57.2,44.7,36.1,35.6,31.1,23.8,91,62,33,29.97,29.38,13,1,13,0.02
2012-4-2,58.4,43.1,31.9,37.4,31.6,27.3,86,66,39,30.17,29.91,7,0,7,0.00
2012-4-3,55.8,46.7,38.1,39.4,33.0,24.5,83,60,41,29.91,29.60,9,0,11,0.00
2012-4-4,55.2,47.5,42.9,28.3,23.6,18.5,55,40,24,29.81,29.66,19,2,19,0.00
2012-4-5,60.2,43.9,34.4,34.5,28.0,23.2,83,56,28,29.93,29.80,12,1,12,0.01
2012-4-6,54.1,42.4,35.9,40.5,33.3,29.4,90,72,47,30.10,29.91,11,0,13,0.03
2012-4-7,60.1,43.4,27.8,37.4,30.1,25.3,91,63,32,30.18,30.06,7,0,7,0.00
2012-4-8,64.9,48.7,32.4,34.2,29.3,26.3,80,50,26,30.16,29.93,6,0,9,0.00
2012-4-9,74.3,55.2,38.4,39.6,32.8,27.5,67,45,24,29.93,29.67,7,0,7,0.00
2012-4-10,69.5,55.5,42.7,44.5,38.0,33.5,72,53,33,29.69,29.50,9,0,9,0.00
2012-4-11,64.2,53.6,47.0,45.4,39.3,35.4,69,59,43,29.54,29.27,18,1,18,0.00
2012-4-12,65.3,52.3,39.9,43.3,36.3,31.7,80,56,34,29.58,29.42,13,1,15,0.00
2012-4-13,69.7,51.6,32.6,40.6,33.4,28.8,87,54,27,29.65,29.51,14,0,14,0.00
2012-4-14,64.3,54.3,42.4,37.7,31.4,27.6,62,43,29,29.84,29.61,18,2,18,0.00
2012-4-15,67.3,55.5,43.1,36.4,30.4,27.3,57,40,23,29.91,29.80,12,1,12,0.00
2012-4-16,57.7,51.1,46.0,43.4,36.7,29.7,80,59,43,29.89,29.75,9,1,9,0.01
2012-4-17,59.2,50.0,40.9,34.8,29.3,25.1,66,46,32,29.96,29.78,12,1,12,0.00
2012-4-18,64.1,49.4,38.2,44.7,34.7,29.3,81,58,38,29.84,29.74,16,1,16,0.00
2012-4-19,61.7,49.2,34.6,43.6,35.8,29.1,84,62,38,29.93,29.84,10,1,10,0.08
2012-4-20,66.2,53.4,39.8,45.4,37.5,30.6,92,59,30,29.94,29.80,12,1,12,0.00
2012-4-21,78.5,59.7,44.2,46.8,39.4,32.3,66,49,30,29.97,29.78,9,1,9,0.00
2012-4-22,86.1,66.1,48.8,53.3,46.3,40.6,76,52,28,29.86,29.59,12,0,12,0.00
2012-4-23,90.7,70.1,54.3,55.9,47.0,42.0,67,46,24,29.70,29.45,13,1,14,0.00
2012-4-24,78.5,65.0,54.1,52.1,45.9,42.1,73,51,31,29.58,29.50,13,2,13,0.00
2012-4-25,72.5,57.0,45.6,55.0,47.6,40.6,91,73,42,29.64,29.41,9,0,9,0.29
2012-4-26,57.7,52.3,46.2,52.3,41.1,27.9,92,68,38,29.73,29.30,14,1,14,0.30
2012-4-27,64.0,51.5,35.8,36.6,31.6,27.8,84,49,31,30.02,29.73,10,1,13,0.00
2012-4-28,73.0,59.1,48.6,45.3,38.0,31.3,59,46,32,30.02,29.86,16,1,16,0.00
2012-4-29,74.4,60.9,47.1,49.0,41.4,37.7,72,50,33,29.91,29.51,14,1,14,0.00
2012-4-30,67.8,56.8,48.2,47.9,38.7,28.8,77,52,33,29.57,29.38,14,1,14,0.01
2012-5-1,61.2,51.7,43.8,34.8,30.3,27.3,61,45,30,29.68,29.57,13,1,13,0.00
2012-5-2,65.8,53.8,43.1,37.6,29.4,26.4,56,40,28,29.72,29.58,11,1,11,0.00
2012-5-3,53.0,48.4,43.1,45.7,40.3,28.1,92,75,40,29.65,29.48,7,0,7,0.21
2012-5-4,59.5,52.1,44.8,42.3,33.9,27.8,82,52,30,30.03,29.64,17,1,17,0.00
2012-5-5,61.2,51.8,42.2,32.9,28.9,26.3,59,42,30,30.23,30.03,16,2,16,0.00
2012-5-6,71.3,55.1,38.3,44.8,34.0,28.0,72,47,26,30.29,30.13,13,0,13,0.00
2012-5-7,76.9,58.3,39.6,45.1,38.8,34.1,83,52,26,30.19,29.92,5,0,5,0.00
2012-5-8,83.3,64.0,45.9,48.4,41.9,37.9,78,48,26,29.93,29.67,10,0,10,0.00
2012-5-9,60.3,54.5,45.8,39.3,26.5,16.3,49,35,22,30.02,29.73,20,3,20,0.00
2012-5-10,63.4,51.4,35.5,32.1,24.5,19.3,63,36,23,30.14,30.02,14,2,14,0.00
2012-5-11,72.8,54.8,36.4,42.7,30.6,25.2,72,43,23,30.16,29.96,10,0,10,0.00
2012-5-12,79.3,58.4,37.7,41.5,34.6,29.6,78,45,18,30.14,29.95,6,0,6,0.00
2012-5-13,87.3,64.7,45.0,54.4,40.4,33.5,69,44,20,30.05,29.81,6,0,6,0.00
2012-5-14,93.3,71.8,50.4,53.0,45.0,37.6,69,41,19,29.92,29.67,10,0,10,0.00
2012-5-15,90.0,72.7,53.8,53.5,41.9,33.6,69,37,14,29.76,29.62,15,1,15,0.01
2012-5-16,77.4,68.7,58.6,41.2,36.9,31.6,46,32,24,29.73,29.64,14,2,14,0.00
2012-5-17,69.5,61.0,52.4,39.6,31.1,15.2,57,34,17,29.72,29.62,18,2,22,0.00
2012-5-18,71.0,59.4,47.2,38.3,29.7,24.4,48,33,21,29.85,29.70,16,2,16,0.03
2012-5-19,75.0,62.5,45.9,42.4,34.8,29.4,58,37,24,29.85,29.75,12,1,13,0.00
2012-5-20,75.3,64.0,53.4,51.4,43.9,34.2,69,49,34,29.80,29.72,9,1,9,0.00
2012-5-21,66.7,59.9,55.0,55.7,51.2,46.4,82,73,62,29.73,29.53,7,1,7,0.05
2012-5-22,66.2,57.1,51.7,46.5,39.9,35.7,69,53,37,29.66,29.58,13,1,13,0.00
2012-5-23,63.9,55.7,46.7,41.1,37.0,34.7,69,51,35,29.70,29.63,14,2,14,0.00
2012-5-24,53.1,50.6,49.4,36.9,35.4,33.8,59,56,50,29.68,29.63,11,2,12,0.00
2012-5-25,66.1,61.7,59.2,37.6,36.0,33.0,44,38,32,29.66,29.62,5,0,5,0.00
2012-5-26,76.7,65.1,53.6,44.7,37.1,32.3,53,37,23,29.70,29.58,10,1,12,0.00
2012-5-27,75.7,65.7,54.1,43.2,38.5,35.1,58,38,25,29.72,29.61,16,3,18,0.00
2012-5-28,72.8,62.4,53.9,43.4,38.8,35.4,57,43,30,29.77,29.69,12,2,16,0.00
2012-5-29,68.6,59.4,50.3,39.8,34.0,31.3,51,39,27,29.87,29.76,13,2,14,0.00
2012-5-30,76.7,63.8,54.8,48.9,39.5,31.2,54,41,33,29.95,29.85,10,1,14,0.00
2012-5-31,77.5,67.9,58.6,53.7,48.1,43.8,72,50,34,29.85,29.74,12,2,13,0.00
2012-6-1,82.7,69.1,57.9,59.5,50.4,44.6,71,52,38,29.75,29.53,9,1,11,0.00
2012-6-2,75.6,65.6,57.2,47.8,42.3,38.3,55,43,30,29.67,29.53,13,1,14,0.00
2012-6-3,71.0,61.2,54.1,41.3,37.5,34.3,56,42,27,29.69,29.63,11,2,12,0.00
2012-6-4,58.4,54.5,50.0,53.0,47.8,36.4,94,80,44,29.65,29.44,5,0,7,0.20
2012-6-5,63.0,56.3,51.9,52.9,41.4,34.5,94,60,39,29.85,29.47,14,2,21,0.07
2012-6-6,65.9,56.6,51.0,37.0,33.4,29.9,52,42,28,29.84,29.78,12,2,13,0.00
2012-6-7,56.9,49.3,42.5,49.9,42.3,34.5,91,77,50,29.83,29.71,9,0,10,0.28
2012-6-8,64.0,52.8,42.8,47.7,41.3,35.7,88,66,46,29.73,29.66,11,0,12,0.20
2012-6-9,63.1,56.8,49.2,41.1,36.9,34.0,59,48,39,29.85,29.71,15,3,22,0.00
2012-6-10,75.7,64.7,55.7,46.8,40.6,37.6,54,42,31,29.91,29.82,16,3,17,0.00
2012-6-11,84.4,67.8,49.2,51.1,43.1,36.6,70,43,25,29.95,29.75,10,1,12,0.00
2012-6-12,79.0,70.1,62.7,58.4,49.4,45.6,62,48,37,29.76,29.63,11,1,12,0.00
2012-6-13,72.1,64.6,56.9,49.5,41.6,35.7,63,44,30,29.81,29.66,18,3,20,0.00
2012-6-14,76.7,62.4,52.4,48.1,37.9,33.8,57,41,27,29.84,29.68,15,2,15,0.00
2012-6-15,82.9,65.9,47.1,47.9,40.4,34.1,67,41,24,29.96,29.83,12,1,12,0.00
2012-6-16,85.4,71.5,59.0,61.2,51.9,42.7,69,51,37,29.89,29.61,11,1,12,0.00
2012-6-17,79.8,68.8,59.7,53.7,47.3,42.7,77,48,29,29.61,29.47,17,2,19,0.00
2012-6-18,68.8,61.7,55.6,44.0,39.5,36.5,58,45,31,29.71,29.48,17,2,18,0.15
2012-6-19,74.2,63.3,53.3,43.8,39.7,36.9,57,43,29,29.88,29.71,13,2,13,0.00
2012-6-20,80.6,66.4,49.3,49.1,43.1,39.6,72,46,25,29.96,29.72,7,0,9,0.00
2012-6-21,88.6,71.7,55.3,55.7,47.1,40.9,64,44,24,29.74,29.44,6,0,9,0.00
2012-6-22,74.0,67.3,56.4,54.6,50.7,46.9,84,56,41,29.47,29.34,16,3,19,0.12
2012-6-23,75.2,62.1,52.5,57.0,50.7,41.8,92,68,44,29.66,29.43,13,1,15,0.01
2012-6-24,76.3,62.3,51.3,56.0,46.0,41.5,84,57,37,29.78,29.63,12,2,14,0.04
2012-6-25,77.7,62.4,53.2,50.7,45.7,42.4,73,56,35,29.78,29.58,17,1,17,0.00
2012-6-26,61.2,58.6,55.3,48.3,43.9,40.6,77,59,49,29.80,29.57,13,1,14,0.05
2012-6-27,79.2,64.2,48.7,49.9,44.2,38.6,72,50,32,29.85,29.70,5,0,7,0.00
2012-6-28,90.3,69.6,51.1,55.4,47.8,41.4,80,50,23,29.77,29.60,9,0,11,0.00
2012-6-29,81.7,72.1,62.2,60.6,52.4,46.8,67,50,39,29.79,29.69,10,1,10,0.00
2012-6-30,86.5,72.8,63.4,63.6,56.6,52.3,85,58,36,29.72,29.55,7,1,10,0.14
2012-7-1,81.5,71.7,64.0,56.2,49.3,41.0,64,47,27,29.69,29.62,13,2,16,0.00
2012-7-2,83.5,68.6,54.6,54.8,45.7,41.9,70,45,28,29.70,29.50,11,1,16,0.00
2012-7-3,73.7,64.3,56.3,46.0,41.5,33.8,61,44,29,29.86,29.51,13,1,15,0.00
2012-7-4,81.6,65.1,49.2,50.1,43.5,39.4,73,48,27,29.86,29.66,7,0,9,0.00
2012-7-5,88.7,70.5,52.7,53.3,47.4,41.7,73,47,24,29.77,29.66,7,0,7,0.00
2012-7-6,96.3,76.7,58.9,54.9,49.5,45.1,65,41,20,29.84,29.71,9,0,9,0.00
2012-7-7,101.5,81.8,63.9,60.1,52.6,46.8,63,39,16,29.86,29.67,9,0,13,0.00
2012-7-8,104.8,85.5,68.7,67.0,56.5,50.8,60,39,19,29.81,29.59,12,0,13,0.00
2012-7-9,105.5,85.8,71.2,66.4,58.6,52.4,67,43,19,29.81,29.57,11,1,13,0.06
2012-7-10,97.4,85.0,72.6,59.2,51.6,43.7,54,33,20,29.78,29.62,14,2,16,0.06
2012-7-11,102.6,84.2,65.9,62.2,51.5,46.7,57,34,18,29.75,29.56,14,1,14,0.00
2012-7-12,97.8,83.9,68.9,61.5,56.3,51.0,62,41,22,29.65,29.50,17,1,17,0.00
2012-7-13,99.0,84.0,74.1,65.9,58.2,55.0,54,43,26,29.66,29.53,13,2,15,0.00
2012-7-14,92.8,79.1,68.4,67.0,60.1,53.6,74,54,32,29.69,29.55,11,1,14,0.00
2012-7-15,89.3,77.9,66.5,59.4,53.4,43.2,54,44,21,29.60,29.43,14,2,16,0.00
2012-7-16,93.1,76.6,62.1,67.0,56.7,48.1,73,52,33,29.69,29.48,12,1,14,0.00
2012-7-17,87.9,77.0,67.9,66.1,61.9,57.8,83,61,40,29.62,29.50,10,1,14,0.04
2012-7-18,94.3,81.9,70.0,63.1,56.6,48.4,72,45,25,29.65,29.55,13,2,16,0.00
2012-7-19,95.3,81.4,66.6,63.7,56.5,50.5,63,44,29,29.75,29.58,11,1,13,0.00
2012-7-20,82.5,74.6,65.0,61.0,56.2,50.2,69,53,40,29.90,29.60,15,1,17,0.04
2012-7-21,88.3,72.7,56.2,59.5,54.0,50.1,82,54,31,29.94,29.74,7,0,7,0.02
2012-7-22,88.3,71.4,61.0,59.5,51.1,39.7,76,51,31,29.77,29.58,14,1,19,0.00
2012-7-23,75.9,66.3,57.7,47.8,42.6,37.7,51,42,34,29.90,29.74,14,2,17,0.00
2012-7-24,91.1,72.8,56.2,57.6,49.5,43.6,66,46,26,29.86,29.65,12,1,13,0.00
2012-7-25,94.0,77.4,61.6,63.7,53.7,48.8,70,46,25,29.78,29.60,6,0,9,0.00
2012-7-26,97.7,79.4,64.8,63.0,55.8,51.4,67,46,26,29.72,29.52,11,1,15,0.02
2012-7-27,90.8,76.9,64.2,58.4,52.8,42.9,77,46,26,29.73,29.56,14,2,14,0.00
2012-7-28,93.0,77.0,64.7,54.6,47.7,44.1,49,37,22,29.81,29.69,11,1,13,0.00
2012-7-29,94.9,78.6,60.7,55.2,51.3,47.3,67,41,23,29.84,29.66,13,1,13,0.00
2012-7-30,88.3,76.8,67.8,58.6,50.0,46.1,49,40,26,29.78,29.66,16,3,19,0.00
2012-7-31,92.8,75.6,62.5,55.6,46.1,38.4,54,37,20,29.82,29.70,13,2,14,0.00
2012-8-1,93.3,76.9,60.7,56.4,46.8,41.6,57,37,20,29.86,29.71,12,1,14,0.00
2012-8-2,86.1,75.6,68.9,54.0,47.7,43.0,52,38,28,29.81,29.69,14,2,15,0.00
2012-8-3,92.0,74.9,58.2,57.5,49.6,41.2,74,44,19,29.89,29.72,10,0,11,0.00
2012-8-4,98.0,77.3,57.7,59.2,52.0,44.6,82,45,22,29.82,29.64,4,0,4,0.00
2012-8-5,102.1,82.0,61.7,65.3,55.7,50.5,75,44,21,29.74,29.57,4,0,5,0.00
2012-8-6,96.7,86.2,74.0,65.4,56.3,49.3,59,38,24,29.77,29.64,14,1,15,0.00
2012-8-7,101.5,83.9,67.4,62.0,54.5,49.2,61,38,20,29.83,29.57,17,1,17,0.00
2012-8-8,90.2,81.5,70.7,57.0,50.0,40.3,48,34,21,29.84,29.62,13,3,16,0.00
2012-8-9,87.3,75.8,60.8,58.4,48.7,42.1,62,40,23,29.89,29.70,15,1,15,0.00
2012-8-10,94.7,78.4,63.2,54.7,49.5,43.2,64,38,19,29.79,29.61,10,2,15,0.01
2012-8-11,98.1,79.6,61.6,63.3,52.0,45.7,70,41,20,29.80,29.65,12,0,15,0.00
2012-8-12,100.4,80.0,61.2,60.8,52.7,47.4,73,42,18,29.78,29.58,7,0,7,0.00
2012-8-13,97.7,81.0,66.2,60.8,49.0,35.8,62,37,12,29.71,29.59,10,1,16,0.04
2012-8-14,94.6,83.5,71.9,60.4,48.7,37.6,43,30,23,29.65,29.49,15,2,16,0.00
2012-8-15,91.6,77.1,62.4,61.3,52.6,46.0,74,45,22,29.78,29.62,5,0,11,0.03
2012-8-16,96.3,75.9,56.9,58.0,51.3,47.0,76,46,20,29.82,29.65,3,0,4,0.00
2012-8-17,97.3,77.7,59.9,60.2,53.2,49.3,75,46,22,29.80,29.65,5,0,7,0.00
2012-8-18,101.0,81.2,61.7,63.4,52.8,48.5,69,41,19,29.75,29.55,8,0,8,0.00
2012-8-19,99.7,81.9,64.8,63.3,53.8,44.2,63,40,21,29.65,29.50,13,1,16,0.00
2012-8-20,95.7,81.0,68.7,59.0,48.0,40.8,53,33,18,29.68,29.56,10,1,15,0.00
2012-8-21,92.8,75.5,63.1,57.0,48.8,41.3,62,41,20,29.66,29.52,11,1,17,0.00
2012-8-22,84.8,72.6,64.5,53.8,45.4,41.3,44,38,28,29.75,29.64,15,2,16,0.00
2012-8-23,77.5,68.2,61.3,47.2,41.1,35.6,50,38,25,29.74,29.65,17,2,20,0.00
2012-8-24,81.0,66.8,55.0,47.8,40.3,35.4,59,39,25,29.89,29.74,12,1,17,0.00
2012-8-25,86.3,66.1,48.7,48.9,43.4,39.9,79,48,21,29.80,29.55,4,0,4,0.00
2012-8-26,90.3,69.8,50.9,56.4,46.0,37.5,72,45,23,29.61,29.43,6,0,9,0.00
2012-8-27,88.5,75.6,64.7,53.7,47.4,40.3,52,38,23,29.73,29.59,10,1,10,0.00
2012-8-28,85.6,70.6,60.0,55.3,47.2,38.8,68,45,28,29.76,29.59,13,1,14,0.00
2012-8-29,79.8,67.5,56.6,55.1,43.1,39.3,63,42,29,29.86,29.74,11,1,11,0.00
2012-8-30,81.8,66.3,50.2,52.5,46.5,42.3,78,51,31,29.81,29.57,5,0,7,0.00
2012-8-31,86.3,68.5,57.3,51.4,44.3,33.3,72,46,18,29.65,29.51,11,1,11,0.00
2012-9-1,80.2,68.2,55.6,48.9,38.9,33.8,54,35,24,29.81,29.65,13,1,14,0.00
2012-9-2,82.5,71.0,60.3,49.3,42.6,38.3,53,37,24,29.85,29.74,13,2,14,0.00
2012-9-3,86.8,70.8,52.8,53.0,46.5,43.3,74,45,24,29.87,29.72,9,1,11,0.00
2012-9-4,87.2,69.7,54.5,54.7,48.4,44.8,74,50,25,29.97,29.80,7,0,7,0.00
2012-9-5,89.2,71.2,52.4,54.7,48.4,44.1,81,48,25,29.86,29.58,7,0,9,0.00
2012-9-6,86.2,69.2,53.1,52.3,46.1,41.3,78,47,22,29.89,29.75,5,0,5,0.00
2012-9-7,88.6,66.8,49.1,54.6,45.6,40.4,76,50,23,30.02,29.88,4,0,4,0.00
2012-9-8,89.5,68.2,50.5,61.3,48.3,41.9,81,53,22,29.94,29.62,10,0,11,0.08
2012-9-9,80.0,70.1,64.2,56.9,48.5,41.3,76,48,28,29.65,29.56,14,2,18,0.00
2012-9-10,65.6,59.8,48.3,47.3,39.0,33.1,75,48,31,29.93,29.62,14,1,18,0.00
2012-9-11,70.9,57.2,45.7,41.0,35.6,30.4,63,46,27,30.09,29.93,7,0,9,0.00
2012-9-12,71.8,55.8,43.3,48.7,39.8,35.5,78,57,28,30.24,30.04,2,0,6,0.00
2012-9-13,55.5,47.4,44.6,41.4,38.0,36.8,75,70,57,30.17,29.96,0,0,1,0.00
2012-9-14,74.2,58.8,47.4,51.8,43.7,38.5,77,58,39,29.96,29.74,2,0,2,0.00
2012-9-15,85.4,68.7,53.1,55.8,43.6,35.9,71,44,23,29.87,29.77,10,1,12,0.00
2012-9-16,85.9,66.9,52.4,53.6,46.4,41.6,71,50,26,29.99,29.82,6,0,7,0.00
2012-9-17,86.2,63.3,49.0,56.2,46.1,41.8,78,56,26,29.98,29.78,2,0,3,0.00
2012-9-18,75.7,59.9,48.2,57.3,46.4,40.6,80,62,41,29.88,29.76,1,0,1,0.00
2012-9-19,82.5,61.2,48.0,50.3,44.7,40.3,81,58,29,29.92,29.81,2,0,2,0.00
2012-9-20,76.6,58.7,48.4,56.1,45.2,39.7,76,62,38,29.93,29.79,1,0,1,0.00
2012-9-21,80.8,60.5,47.8,57.1,47.5,41.9,83,64,34,29.87,29.69,1,0,1,0.00
2012-9-22,76.7,63.9,52.8,54.9,48.8,45.1,78,59,42,29.79,29.71,11,0,12,0.00
2012-9-23,75.3,62.6,53.6,54.6,49.6,45.1,79,63,44,29.88,29.77,11,0,13,0.00
2012-9-24,75.2,61.8,48.5,56.1,50.2,41.5,93,69,34,29.87,29.71,13,0,13,0.00
2012-9-25,78.3,69.5,63.2,49.7,45.0,37.6,53,42,25,29.81,29.71,13,2,14,0.00
2012-9-26,76.3,61.5,47.9,52.1,45.9,42.2,83,59,33,29.88,29.77,4,0,5,0.00
2012-9-27,76.9,59.7,47.3,56.3,46.6,41.4,82,64,34,29.90,29.72,2,0,3,0.00
2012-9-28,71.5,57.8,47.4,55.3,47.6,42.5,86,70,46,29.78,29.68,2,0,3,0.00
2012-9-29,78.3,68.7,56.8,53.0,46.9,36.6,74,48,25,29.93,29.74,13,1,13,0.00
2012-9-30,76.8,63.5,50.6,44.1,39.5,34.4,65,42,24,30.09,29.93,9,0,10,0.00
2012-10-1,79.4,65.4,48.0,52.7,45.4,38.5,76,50,33,30.06,29.71,11,0,13,0.00
2012-10-2,71.2,63.3,49.5,51.2,32.0,21.1,61,32,17,30.08,29.72,17,2,18,0.00
2012-10-3,65.2,49.0,35.2,36.5,28.5,22.1,67,47,27,30.27,30.08,4,0,6,0.00
2012-10-4,65.8,46.9,32.9,35.6,29.8,27.0,81,55,25,30.20,30.08,4,0,4,0.00
2012-10-5,65.5,46.8,32.2,37.8,29.0,25.5,80,53,24,30.25,30.10,3,0,4,0.00
2012-10-6,68.5,47.2,32.3,37.5,30.1,25.1,78,55,26,30.21,30.01,2,0,4,0.00
2012-10-7,69.2,48.6,33.9,39.5,32.8,27.7,81,57,29,30.03,29.76,2,0,2,0.00
2012-10-8,70.4,50.2,36.1,47.5,36.6,30.6,84,62,34,29.80,29.67,2,0,2,0.00
2012-10-9,75.6,55.0,41.1,47.9,41.1,36.3,86,63,32,29.90,29.75,4,0,4,0.00
2012-10-10,73.3,54.0,41.0,47.7,42.0,37.0,89,66,37,29.77,29.60,3,0,3,0.00
2012-10-11,72.7,54.1,40.7,49.6,41.5,35.8,86,64,36,29.79,29.57,3,0,6,0.00
2012-10-12,66.7,54.7,42.2,46.7,42.9,37.4,86,66,47,29.70,29.56,7,0,7,0.00
2012-10-13,69.4,59.0,50.6,52.7,49.1,45.4,88,71,49,29.90,29.70,6,0,7,0.00
2012-10-14,70.1,58.4,52.5,55.2,52.0,47.1,95,81,44,29.90,29.65,11,0,11,0.02
2012-10-15,69.2,58.0,50.5,55.8,51.3,46.2,94,80,50,29.68,29.32,6,0,7,0.09
2012-10-16,62.2,53.3,44.8,50.8,38.5,30.6,93,59,36,29.95,29.29,20,2,22,0.19
2012-10-17,60.5,48.4,36.9,39.0,35.1,31.7,84,62,36,30.10,29.95,10,0,13,0.00
2012-10-18,61.2,48.7,38.2,42.5,38.6,35.2,92,70,43,30.07,29.63,3,0,5,0.00
2012-10-19,71.3,53.7,42.5,53.1,42.2,37.2,93,68,38,29.64,29.39,14,1,14,0.00
2012-10-20,55.0,47.8,38.9,38.0,30.4,21.1,72,52,28,29.66,29.48,10,1,13,0.00
2012-10-21,50.3,39.0,28.1,34.1,30.2,25.0,92,72,48,29.73,29.65,6,0,9,0.00
2012-10-22,41.1,38.8,37.4,37.6,35.5,30.9,94,88,73,29.66,29.41,5,0,5,0.33
2012-10-23,49.9,41.6,35.8,40.8,37.5,34.2,96,86,67,29.76,29.48,3,0,3,0.00
2012-10-24,41.8,39.7,36.7,39.6,36.9,34.8,95,90,84,30.00,29.75,3,0,4,0.51
2012-10-25,52.4,40.8,31.9,41.9,35.9,30.3,100,83,58,30.23,30.00,2,0,3,0.01
2012-10-26,41.4,39.5,38.0,38.9,37.2,35.6,94,92,88,30.21,29.91,3,0,3,0.41
2012-10-27,44.7,40.7,38.1,41.2,38.4,36.2,95,92,83,29.92,29.68,3,0,4,0.23
2012-10-28,53.4,44.7,37.0,47.6,42.3,35.7,100,92,78,29.75,29.64,2,0,2,0.05
2012-10-29,66.8,52.6,44.9,53.7,45.2,39.4,97,79,41,29.79,29.60,5,0,7,0.22
2012-10-30,58.1,51.1,46.5,51.2,47.7,42.6,95,89,74,29.79,29.65,5,0,5,0.12
2012-10-31,54.8,52.0,47.4,52.2,49.9,45.6,95,93,88,29.66,29.48,3,0,4,0.02
2012-11-1,58.4,50.4,45.7,51.1,47.0,43.2,96,89,72,29.82,29.54,3,0,3,0.00
2012-11-2,53.6,47.1,40.5,47.5,44.0,38.9,96,89,77,29.93,29.82,1,0,2,0.01
2012-11-3,57.2,49.1,44.6,50.4,46.3,43.2,97,90,74,29.96,29.84,3,0,3,0.01
2012-11-4,62.4,52.6,47.3,51.9,48.4,45.3,95,86,65,30.08,29.96,7,0,8,0.00
2012-11-5,62.9,53.3,43.6,47.5,41.0,35.1,97,67,38,30.08,29.94,12,1,13,0.00
2012-11-6,54.8,45.9,37.1,45.7,39.0,34.4,91,78,54,30.00,29.68,3,0,3,0.00
2012-11-7,52.6,46.8,35.6,38.5,32.1,28.5,79,57,47,29.86,29.72,9,1,13,0.00
2012-11-8,48.5,40.0,34.4,35.6,31.4,28.7,84,72,53,29.79,29.56,7,0,7,0.00
2012-11-9,44.3,37.4,32.5,35.2,31.7,28.3,92,80,66,29.77,29.60,4,0,4,0.00
2012-11-10,40.0,34.8,27.1,30.9,27.8,23.9,91,76,56,30.06,29.76,4,0,5,0.02
2012-11-11,37.1,30.6,23.6,30.1,26.7,21.4,94,86,70,30.17,30.06,2,0,2,0.00
2012-11-12,40.5,34.1,31.2,33.6,31.1,29.6,94,89,74,30.13,30.04,3,0,4,0.21
2012-11-13,39.5,36.7,33.7,33.9,32.8,31.9,99,86,78,30.13,30.03,4,0,4,0.00
2012-11-14,41.0,38.1,36.5,36.2,34.2,32.3,92,86,82,30.20,30.03,3,0,5,0.00
2012-11-15,39.2,37.7,36.4,35.7,34.3,32.5,92,88,81,30.20,29.85,4,0,4,0.00
2012-11-16,42.5,39.6,37.6,38.1,35.9,34.4,93,87,77,29.85,29.75,4,0,5,0.01
2012-11-17,40.6,39.3,35.5,38.9,37.3,33.6,94,93,88,29.75,29.40,10,0,10,0.22
2012-11-18,46.2,38.2,30.0,40.7,35.4,28.7,97,90,79,29.68,29.52,5,0,6,0.03
2012-11-19,56.1,45.1,41.4,45.0,41.8,39.8,95,89,64,29.54,29.28,12,1,16,0.13
2012-11-20,50.7,41.9,36.8,44.7,39.0,35.0,97,90,78,29.57,29.39,13,0,17,0.04
2012-11-21,50.9,40.9,33.5,38.0,33.4,26.7,96,77,44,30.03,29.40,10,1,14,0.01
2012-11-22,46.0,40.1,34.6,34.6,32.9,30.5,86,76,59,30.27,30.03,11,0,11,0.00
2012-11-23,42.9,38.9,35.8,37.8,35.7,32.8,94,88,77,30.19,29.88,2,0,3,0.19
2012-11-24,43.4,37.1,30.7,40.9,33.7,28.8,100,88,67,30.05,29.87,6,0,7,0.01
2012-11-25,44.3,33.0,26.1,33.2,28.2,24.0,94,83,62,30.20,30.01,5,0,7,0.00
2012-11-26,39.1,30.0,22.5,31.3,26.4,20.8,95,87,70,30.21,30.05,2,0,2,0.00
2012-11-27,38.4,34.1,27.4,30.8,29.0,25.1,93,82,70,30.11,29.97,3,0,3,0.00
2012-11-28,39.2,34.7,30.5,33.4,30.6,28.6,95,85,70,29.98,29.67,3,0,4,0.10
2012-11-29,38.6,35.3,30.8,36.7,33.6,29.3,95,94,88,29.73,29.44,4,0,6,0.02
2012-11-30,43.5,39.2,35.9,39.2,36.6,34.2,100,90,81,29.45,29.34,4,0,4,0.02
2012-12-1,50.9,42.6,34.9,42.5,38.0,33.1,96,85,66,29.47,29.24,6,0,7,0.03
2012-12-2,51.9,44.0,38.9,39.7,36.5,31.3,94,77,47,29.60,29.03,10,1,12,0.11
2012-12-3,48.1,42.8,39.7,38.7,37.8,36.8,91,83,68,29.81,29.60,2,0,3,0.00
2012-12-4,45.0,41.1,36.1,41.6,38.6,34.4,95,91,85,29.63,29.50,6,0,7,0.20
2012-12-5,48.7,41.3,33.0,37.3,28.0,22.3,96,61,40,30.00,29.54,13,1,13,0.00
2012-12-6,40.4,34.2,28.4,34.2,30.2,25.6,93,86,71,29.97,29.80,12,0,12,0.00
2012-12-7,42.5,37.4,34.4,36.4,31.9,25.6,90,81,63,29.89,29.65,11,1,13,0.11
2012-12-8,38.7,34.6,31.1,33.0,29.3,26.5,87,81,73,30.19,29.89,10,1,12,0.01
2012-12-9,37.6,31.7,27.2,32.1,27.7,24.8,93,85,70,30.24,30.04,3,0,4,0.00
2012-12-10,39.8,31.4,25.1,33.8,28.6,23.1,94,90,77,30.12,29.85,3,0,5,0.00
2012-12-11,36.6,32.5,29.2,32.5,30.3,27.6,95,92,84,29.85,29.41,2,0,3,0.06
2012-12-12,39.5,35.2,32.3,35.0,32.8,30.1,95,91,81,29.83,29.44,4,0,4,0.04
2012-12-13,34.7,32.4,28.6,32.0,30.1,26.8,100,91,85,29.88,29.70,2,0,3,0.00
2012-12-14,35.3,31.8,27.4,31.2,29.4,25.0,95,91,83,29.79,29.63,3,0,5,0.05
2012-12-15,32.0,31.1,29.1,30.4,29.3,27.6,95,93,90,29.79,29.45,2,0,3,0.03
2012-12-16,33.4,29.0,23.3,30.2,27.0,21.3,100,92,84,29.59,29.00,4,0,5,0.05
2012-12-17,43.4,34.9,25.9,33.5,29.1,22.5,96,80,50,29.66,28.92,17,1,20,0.38
2012-12-18,32.7,25.7,17.5,26.5,21.7,15.4,93,85,74,29.86,29.66,7,0,11,0.01
2012-12-19,27.5,25.0,19.7,25.4,22.5,17.8,93,90,87,29.87,29.64,3,0,4,0.00
2012-12-20,37.7,30.6,27.0,32.8,28.0,25.2,94,90,80,29.70,29.47,3,0,4,0.12
2012-12-21,32.8,29.9,26.1,31.0,27.9,23.6,100,92,86,29.76,29.60,5,0,6,0.06
2012-12-22,34.4,32.3,31.0,33.5,31.0,29.7,99,95,93,29.62,29.41,3,0,3,0.02
2012-12-23,35.3,32.8,31.8,32.4,31.1,30.3,96,93,88,29.69,29.51,3,0,5,0.36
2012-12-24,37.0,31.8,28.8,33.9,30.0,27.5,96,93,85,30.02,29.58,4,0,5,0.13
2012-12-25,33.3,30.3,28.1,31.1,28.8,26.9,96,94,90,30.01,29.69,3,0,4,0.00
2012-12-26,37.3,32.1,30.0,33.4,30.3,28.8,96,93,85,29.80,29.66,2,0,2,0.24
2012-12-27,36.7,32.6,29.6,32.2,30.0,28.3,96,90,80,30.03,29.80,1,0,2,0.16
2012-12-28,33.2,31.1,29.8,29.2,27.2,25.1,92,86,80,30.11,30.02,2,0,3,0.02
2012-12-29,32.9,29.8,27.0,27.6,26.0,23.9,93,86,79,30.11,29.99,3,0,4,0.04
2012-12-30,30.8,27.2,24.2,26.8,24.5,22.2,94,89,83,30.21,30.10,2,0,3,0.01
2012-12-31,29.5,26.1,22.1,25.3,22.4,18.3,92,86,75,30.37,30.19,3,0,3,0.01
2013-1-1,28.6,25.8,23.9,22.9,21.1,19.3,87,82,76,30.52,30.36,4,0,5,0.00